Location: Friedrichshafen
(47.6598°N, 9.4819°E)
Time: 05:11:25
(UTC+01:00)

Amateur Radio Satellites - All Passes

Search period start: 21 November 2017 04:41
Search period end: 22 November 2017 04:41
Location: Friedrichshafen, 47.6598°N, 9.4819°E

Satellite Date Start Highest point End Downlink Frequencies (MHz)
Time Altitude Azimuth
CUBESAT XI-V 21 Nov 04:58:32 05:01:45 19° 269° (W) 05:05:00 437.345
KKS-1 21 Nov 05:05:14 05:09:36 52° 260° (W) 05:14:01 437.445
RS-15 21 Nov 05:22:07 05:32:45 42° 252° (WSW) 05:42:54 29.354- 29.394
DOVE 4 21 Nov 05:27:20 05:32:36 73° 102° (ESE) 05:37:36 437.250
STARS 21 Nov 05:30:41 05:35:06 68° 257° (WSW) 05:39:33 437.465
KAITUO 1B 21 Nov 05:34:25 05:35:52 12° 89° (E) 05:37:20 145.475/437.950
BEESAT 2 21 Nov 05:37:51 05:41:18 26° 321° (NW) 05:44:47 435.950
STRAND 1 21 Nov 05:40:47 05:44:48 24° 61° (ENE) 05:48:50 437.568
XW-2D 21 Nov 05:46:50 05:49:55 23° 94° (E) 05:53:00 145.860 - 145.880
XW-2B 21 Nov 06:01:24 06:04:50 31° 96° (E) 06:08:15 145.730 - 145.750
CUTE-I 21 Nov 06:06:14 06:11:03 32° 95° (E) 06:15:49 437.470
SO-50 21 Nov 06:07:05 06:11:40 58° 48° (NE) 06:16:17 436.795
BEESAT 3 21 Nov 06:08:59 06:09:32 10° 338° (NNW) 06:10:05 437.485
AO-7 21 Nov 06:13:33 06:20:21 29° 310° (NW) 06:27:10 .
AO-85 21 Nov 06:17:26 06:20:52 27° 322° (NW) 06:24:29 145.980
NUDT-PHONESAT 21 Nov 06:18:16 06:21:40 34° 97° (E) 06:25:05 437.300
ITAMSAT 1 21 Nov 06:18:50 06:21:13 13° 307° (NW) 06:23:36 435.822/435.867
CUTE 1.7 + AOD 2 21 Nov 06:22:13 06:24:47 15° 89° (E) 06:27:19 437.475
XW-2C 21 Nov 06:26:44 06:30:31 63° 101° (E) 06:34:18 145.795 - 145.815
LilacSat-2 21 Nov 06:28:10 06:32:00 71° 102° (ESE) 06:35:49 437.200
FO-29 21 Nov 06:31:07 06:36:38 26° 54° (NE) 06:42:33 435.910
PCSat 21 Nov 06:33:24 06:35:27 12° 18° (NNE) 06:37:30 145.827
YUBILEINY 21 Nov 06:35:47 06:44:31 71° 282° (WNW) 06:53:23 435.215
XW-2F 21 Nov 06:37:50 06:41:39 80° 104° (ESE) 06:45:27 145.980 - 146.000
HO-68 21 Nov 06:43:31 06:49:53 33° 94° (E) 06:56:12 435.675
SEEDS 21 Nov 06:53:05 06:56:13 20° 92° (E) 06:59:20 437.485
AAUSAT CUBESAT 2 21 Nov 07:02:40 07:03:52 11° 87° (E) 07:05:04 437.432
DOVE 4 21 Nov 07:06:02 07:09:39 19° 301° (WNW) 07:13:10 437.250
KAITUO 1B 21 Nov 07:06:31 07:10:15 61° 286° (WNW) 07:13:58 145.475/437.950
CUBEBUG 2 21 Nov 07:13:23 07:17:03 29° 95° (E) 07:20:40 437.445
STRAND 1 21 Nov 07:18:34 07:23:37 56° 259° (W) 07:28:43 437.568
XW-2D 21 Nov 07:20:45 07:24:07 31° 291° (WNW) 07:27:30 145.860 - 145.880
XW-2B 21 Nov 07:35:49 07:38:51 23° 294° (WNW) 07:41:55 145.730 - 145.750
CUTE-I 21 Nov 07:46:10 07:51:11 41° 294° (WNW) 07:56:09 437.470
XW-2A 21 Nov 07:46:23 07:49:25 31° 97° (E) 07:52:27 145.665 - 145.685
SO-50 21 Nov 07:48:11 07:51:47 23° 246° (WSW) 07:55:26 436.795
NUDT-PHONESAT 21 Nov 07:52:32 07:55:19 21° 295° (WNW) 07:58:07 437.300
CUTE 1.7 + AOD 2 21 Nov 07:56:46 08:00:59 59° 287° (WNW) 08:05:11 437.475
ZACube-1 21 Nov 08:02:03 08:05:41 29° 95° (E) 08:09:19 437.345
XW-2C 21 Nov 08:02:24 08:04:13 13° 299° (WNW) 08:06:03 145.795 - 145.815
LilacSat-2 21 Nov 08:04:11 08:05:44 12° 300° (WNW) 08:07:18 437.200
UWE-3 21 Nov 08:10:41 08:14:50 67° 102° (ESE) 08:18:56 435.000/436.395/437.385
FO-29 21 Nov 08:14:04 08:20:47 81° 256° (WSW) 08:28:22 435.910
XW-2F 21 Nov 08:14:11 08:15:09 11° 301° (WNW) 08:16:09 145.980 - 146.000
PCSat 21 Nov 08:15:45 08:20:37 32° 42° (NE) 08:25:29 145.827
PRISM 21 Nov 08:25:28 08:26:54 12° 57° (ENE) 08:28:21 437.425
SEEDS 21 Nov 08:28:03 08:32:06 44° 289° (WNW) 08:36:09 437.485
HO-68 21 Nov 08:30:56 08:37:58 58° 294° (WNW) 08:44:57 435.675
AAUSAT CUBESAT 2 21 Nov 08:35:40 08:39:52 80° 286° (WNW) 08:44:03 437.432
YUBILEINY 21 Nov 08:37:35 08:43:14 18° 307° (NW) 08:48:59 435.215
CUBEBUG 2 21 Nov 08:50:01 08:53:39 29° 293° (WNW) 08:57:14 437.445
UNISAT 6 21 Nov 08:52:54 08:57:20 53° 72° (ENE) 09:01:43 437.425
AO-73 21 Nov 08:52:58 08:57:07 89° 106° (ESE) 09:01:17 145.935
TIGRISAT 21 Nov 08:57:20 09:01:46 54° 72° (ENE) 09:06:09 435.000
Oscar 11 21 Nov 09:09:40 09:14:01 90° 60° (ENE) 09:18:22 .
DELFI C3 21 Nov 09:09:47 09:12:48 20° 92° (E) 09:15:48 145.870
XW-2A 21 Nov 09:19:33 09:21:55 18° 294° (WNW) 09:24:17 145.665 - 145.685
BEESAT 3 21 Nov 09:26:32 09:28:25 13° 27° (NNE) 09:30:17 437.485
ZACube-1 21 Nov 09:38:22 09:41:56 29° 293° (WNW) 09:45:31 437.345
UWE-3 21 Nov 09:48:33 09:50:47 14° 300° (WNW) 09:53:01 435.000/436.395/437.385
PRISM 21 Nov 09:57:22 10:01:30 89° 274° (W) 10:05:42 437.425
PCSat 21 Nov 09:59:00 10:04:17 54° 243° (WSW) 10:09:32 145.827
FO-29 21 Nov 10:02:54 10:07:08 17° 278° (W) 10:11:38 435.910
AAUSAT CUBESAT 2 21 Nov 10:14:05 10:14:34 10° 303° (WNW) 10:15:03 437.432
DUCHIFAT 1 21 Nov 10:14:48 10:17:12 15° 60° (ENE) 10:19:35 145.980
EO-88 21 Nov 10:17:09 10:20:44 54° 100° (E) 10:24:19 145.990 - 145.960
Max Valier Satellite 21 Nov 10:18:12 10:21:52 82° 102° (ESE) 10:25:32 145.860
HO-68 21 Nov 10:20:30 10:24:16 15° 316° (NW) 10:28:00 435.675
EO-79 21 Nov 10:20:53 10:24:05 21° 63° (ENE) 10:27:17 145.935-145.965
NANOSAT C BR1 21 Nov 10:24:21 10:27:29 21° 63° (ENE) 10:30:37 145.865
AIST 2D 21 Nov 10:27:17 10:30:41 55° 74° (ENE) 10:34:06 435.315
UNISAT 6 21 Nov 10:31:09 10:34:20 19° 269° (W) 10:37:30 437.425
AO-73 21 Nov 10:31:27 10:32:43 11° 302° (WNW) 10:33:59 145.935
POLYITAN 1 21 Nov 10:35:36 10:39:14 29° 66° (ENE) 10:42:53 437.675
TIGRISAT 21 Nov 10:35:37 10:38:45 18° 269° (W) 10:41:53 435.000
BEESAT 2 21 Nov 10:36:55 10:39:35 17° 32° (NNE) 10:42:14 435.950
LO-87 21 Nov 10:43:21 10:45:26 15° 91° (E) 10:47:30 145.935 - 145.965
DELFI C3 21 Nov 10:43:57 10:47:41 38° 290° (WNW) 10:51:24 145.870
Oscar 11 21 Nov 10:47:49 10:49:30 12° 302° (WNW) 10:51:10 .
FALCONSAT 3 21 Nov 10:55:12 10:55:34 10° 168° (SSE) 10:55:56 435.103
QB50P2 21 Nov 10:58:18 11:02:26 52° 71° (ENE) 11:06:35 145.880/145.840
BEESAT 3 21 Nov 11:02:54 11:06:49 54° 48° (NE) 11:10:40 437.485
BUGSAT 1 21 Nov 11:08:16 11:10:32 14° 60° (ENE) 11:12:48 437.445
Gurwin Techsat 1B 21 Nov 11:16:20 11:17:45 11° 51° (NE) 11:19:11 435.225
AO-85 21 Nov 11:23:47 11:27:21 22° 35° (NE) 11:31:06 145.980
SPROUT 21 Nov 11:41:06 11:43:07 13° 89° (E) 11:45:08 437.525
AO-7 21 Nov 11:44:44 11:47:54 13° 32° (NNE) 11:51:04 .
DUCHIFAT 1 21 Nov 11:48:09 11:52:21 67° 259° (WSW) 11:56:33 145.980
EO-88 21 Nov 11:52:04 11:53:58 14° 298° (WNW) 11:55:51 145.990 - 145.960
EO-79 21 Nov 11:55:30 11:59:34 44° 261° (W) 12:03:38 145.935-145.965
ESTCUBE 1 21 Nov 11:55:49 12:00:21 70° 103° (ESE) 12:04:52 437.505/2401.250
NANOSAT C BR1 21 Nov 11:58:50 12:02:54 45° 261° (W) 12:06:59 145.865
AIST 2D 21 Nov 12:03:15 12:04:12 11° 271° (W) 12:05:09 435.315
POLYITAN 1 21 Nov 12:11:10 12:14:57 31° 264° (W) 12:18:45 437.675
BEESAT 2 21 Nov 12:13:52 12:17:56 83° 52° (NE) 12:21:56 435.950
LO-87 21 Nov 12:15:40 12:19:03 41° 289° (WNW) 12:22:23 145.935 - 145.965
VELOX 1 21 Nov 12:17:37 12:20:59 21° 92° (E) 12:24:19 145.980
M-CUBED/EXP-1 PRIME 21 Nov 12:23:04 12:24:35 12° 51° (NE) 12:26:07 437.505
Oscar 19 21 Nov 12:27:23 12:32:18 50° 69° (ENE) 12:37:16 437.125/150
FALCONSAT 3 21 Nov 12:32:11 12:33:45 12° 184° (S) 12:35:20 435.103
QB50P2 21 Nov 12:35:45 12:38:31 17° 269° (W) 12:41:20 145.880/145.840
BUGSAT 1 21 Nov 12:41:12 12:45:23 70° 257° (WSW) 12:49:33 437.445
BEESAT 3 21 Nov 12:41:16 12:43:58 18° 247° (WSW) 12:46:39 437.485
Gurwin Techsat 1B 21 Nov 12:51:25 12:56:38 60° 70° (ENE) 13:01:53 435.225
AO-85 21 Nov 13:03:37 13:08:15 82° 233° (SW) 13:13:15 145.980
DX 1 21 Nov 13:04:06 13:06:37 15° 90° (E) 13:09:06 434.975-435.025
SPROUT 21 Nov 13:15:15 13:19:29 69° 287° (WNW) 13:23:41 437.525
AO-7 21 Nov 13:30:55 13:38:25 40° 56° (NE) 13:45:57 .
ESTCUBE 1 21 Nov 13:33:50 13:36:37 16° 301° (WNW) 13:39:25 437.505/2401.250
UKube-1 21 Nov 13:45:33 13:49:07 24° 94° (E) 13:52:38 .
O/OREOS (USA 219) 21 Nov 13:50:49 13:55:23 70° 112° (ESE) 13:59:59 437.305
VELOX 1 21 Nov 13:53:22 13:57:39 47° 290° (WNW) 14:01:55 145.980
BEESAT 2 21 Nov 13:53:29 13:55:01 12° 251° (WSW) 13:56:34 435.950
M-CUBED/EXP-1 PRIME 21 Nov 13:54:42 13:58:17 82° 248° (WSW) 14:02:14 437.505
50 SAT 21 Nov 14:04:24 14:07:38 72° 102° (ESE) 14:10:50 437.505
Oscar 19 21 Nov 14:07:47 14:11:53 24° 267° (W) 14:16:02 437.125/150
ITAMSAT 1 21 Nov 14:19:52 14:24:39 37° 65° (ENE) 14:29:26 435.822/435.867
Gurwin Techsat 1B 21 Nov 14:32:57 14:36:59 22° 269° (W) 14:41:01 435.225
DX 1 21 Nov 14:38:51 14:43:13 64° 288° (WNW) 14:47:32 434.975-435.025
BEESAT 21 Nov 14:40:03 14:42:42 15° 89° (E) 14:45:20 436.000
AO-85 21 Nov 14:45:56 14:48:04 13° 251° (WSW) 14:50:14 145.980
YUBILEINY 21 Nov 14:46:06 14:51:56 19° 53° (NE) 14:57:44 435.215
ITUPSAT 1 21 Nov 14:49:18 14:52:30 18° 91° (E) 14:55:41 437.325
NO-84 21 Nov 14:59:17 15:02:10 22° 130° (SE) 15:05:13 435.350 FM
DOVE 4 21 Nov 14:59:56 15:03:12 17° 57° (ENE) 15:06:32 437.250
MOZHAYETS 4 21 Nov 15:01:18 15:05:19 30° 95° (E) 15:09:20
CUBESAT XI-V 21 Nov 15:15:05 15:16:12 11° 86° (E) 15:17:18 437.345
UKube-1 21 Nov 15:21:13 15:25:14 38° 292° (WNW) 15:29:14 .
AO-7 21 Nov 15:22:49 15:30:56 58° 257° (WSW) 15:39:08 .
O/OREOS (USA 219) 21 Nov 15:32:00 15:35:17 19° 313° (NW) 15:38:36 437.305
CUTE-I 21 Nov 15:54:53 15:57:21 13° 53° (NE) 15:59:50 437.470
ITAMSAT 1 21 Nov 15:59:22 16:04:07 34° 263° (W) 16:08:53 435.822/435.867
BEESAT 21 Nov 16:16:15 16:21:01 74° 286° (WNW) 16:25:44 436.000
ITUPSAT 1 21 Nov 16:26:01 16:30:44 61° 289° (WNW) 16:35:25 437.325
XW-2D 21 Nov 16:31:31 16:34:10 19° 64° (ENE) 16:36:50 145.860 - 145.880
DOVE 4 21 Nov 16:35:04 16:40:09 84° 257° (WSW) 16:45:28 437.250
NO-84 21 Nov 16:35:18 16:39:07 73° 331° (NNW) 16:43:14 435.350 FM
MOZHAYETS 4 21 Nov 16:38:23 16:42:29 34° 293° (WNW) 16:46:35
YUBILEINY 21 Nov 16:41:44 16:50:37 72° 78° (ENE) 16:59:26 435.215
XW-2B 21 Nov 16:45:49 16:48:54 25° 67° (ENE) 16:52:01 145.730 - 145.750
CUBESAT XI-V 21 Nov 16:49:33 16:54:17 85° 111° (ESE) 16:58:59 437.345
KKS-1 21 Nov 16:53:06 16:56:40 23° 93° (E) 17:00:13 437.445
NUDT-PHONESAT 21 Nov 17:00:26 17:03:27 25° 67° (ENE) 17:06:30 437.300
XW-2C 21 Nov 17:10:49 17:14:24 47° 72° (ENE) 17:18:02 145.795 - 145.815
LilacSat-2 21 Nov 17:12:51 17:16:30 54° 73° (ENE) 17:20:13 437.200
HO-68 21 Nov 17:15:45 17:22:09 36° 59° (ENE) 17:28:33 435.675
STARS 21 Nov 17:17:32 17:20:26 17° 91° (E) 17:23:17 437.465
CUTE 1.7 + AOD 2 21 Nov 17:18:08 17:20:54 17° 62° (ENE) 17:23:41 437.475
XW-2F 21 Nov 17:21:21 17:25:00 58° 73° (ENE) 17:28:40 145.980 - 146.000
AO-7 21 Nov 17:23:07 17:25:33 11° 278° (W) 17:28:00 .
CUTE-I 21 Nov 17:31:08 17:36:28 72° 72° (ENE) 17:41:52 437.470
RS-15 21 Nov 17:37:41 17:47:34 30° 102° (ESE) 17:57:22 29.354- 29.394
UWE-3 21 Nov 17:37:52 17:38:56 11° 57° (ENE) 17:39:59 435.000/436.395/437.385
SEEDS 21 Nov 17:47:54 17:51:04 21° 64° (ENE) 17:54:14 437.485
KAITUO 1B 21 Nov 17:48:59 17:52:40 84° 254° (WSW) 17:56:23 145.475/437.950
AAUSAT CUBESAT 2 21 Nov 17:55:56 17:57:39 12° 59° (ENE) 17:59:23 437.432
BEESAT 21 Nov 17:56:19 17:57:56 12° 306° (NW) 17:59:34 436.000
XW-2D 21 Nov 18:04:35 18:08:05 38° 262° (W) 18:11:37 145.860 - 145.880
NO-84 21 Nov 18:13:23 18:16:59 31° 351° (N) 18:20:46 435.350 FM
CUBEBUG 2 21 Nov 18:14:01 18:18:14 38° 69° (ENE) 18:22:22 437.445
DOVE 4 21 Nov 18:16:34 18:18:40 12° 276° (W) 18:20:47 437.250
AO-73 21 Nov 18:17:54 18:19:47 13° 59° (ENE) 18:21:39 145.935
XW-2B 21 Nov 18:19:46 18:23:00 27° 265° (W) 18:26:16 145.730 - 145.750
XW-2A 21 Nov 18:20:56 18:23:19 19° 66° (ENE) 18:25:42 145.665 - 145.685
CUBESAT XI-V 21 Nov 18:28:31 18:30:59 14° 302° (WNW) 18:33:27 437.345
KKS-1 21 Nov 18:29:10 18:33:23 42° 291° (WNW) 18:37:35 437.445
Oscar 11 21 Nov 18:33:59 18:36:01 13° 59° (ENE) 18:38:03 .
NUDT-PHONESAT 21 Nov 18:34:08 18:37:14 26° 265° (W) 18:40:22 437.300
YUBILEINY 21 Nov 18:39:27 18:46:39 29° 280° (W) 18:53:51 435.215
XW-2C 21 Nov 18:46:43 18:48:51 15° 270° (W) 18:51:01 145.795 - 145.815
LilacSat-2 21 Nov 18:49:18 18:51:07 13° 271° (W) 18:52:58 437.200
CUTE 1.7 + AOD 2 21 Nov 18:52:13 18:56:19 55° 260° (W) 19:00:30 437.475
STARS 21 Nov 18:52:48 18:57:07 56° 289° (WNW) 19:01:24 437.465
XW-2F 21 Nov 18:58:01 18:59:29 12° 271° (W) 19:00:57 145.980 - 146.000
ZACube-1 21 Nov 19:00:41 19:04:35 35° 69° (ENE) 19:08:27 437.345
HO-68 21 Nov 19:02:34 19:09:36 56° 259° (WSW) 19:16:42 435.675
UWE-3 21 Nov 19:10:14 19:14:41 80° 75° (ENE) 19:19:01 435.000/436.395/437.385
CUTE-I 21 Nov 19:13:27 19:17:04 18° 271° (W) 19:20:43 437.470
FO-29 21 Nov 19:21:30 19:26:21 17° 82° (E) 19:31:03 435.910
SEEDS 21 Nov 19:22:31 19:26:28 42° 262° (W) 19:30:29 437.485
STRAND 1 21 Nov 19:25:38 19:30:25 38° 97° (E) 19:35:09 437.568
AAUSAT CUBESAT 2 21 Nov 19:28:22 19:32:29 81° 259° (W) 19:36:40 437.432
RS-15 21 Nov 19:46:13 19:58:36 90° 132° (SE) 20:10:53 29.354- 29.394
CUBEBUG 2 21 Nov 19:51:08 19:54:56 26° 266° (W) 19:58:40 437.445
AO-73 21 Nov 19:51:08 19:55:27 81° 258° (WSW) 19:59:40 145.935
NO-84 21 Nov 19:51:22 19:55:09 33° 12° (NNE) 19:59:03 435.350 FM
XW-2A 21 Nov 19:52:54 19:55:51 29° 263° (W) 19:58:48 145.665 - 145.685
DELFI C3 21 Nov 19:58:16 20:01:06 19° 64° (ENE) 20:03:57 145.870
Oscar 11 21 Nov 20:07:15 20:11:32 81° 257° (WSW) 20:15:52 .
nSIGHT-1 21 Nov 20:24:45 20:26:30 14° 136° (SE) 20:28:14 .
ZACube-1 21 Nov 20:37:22 20:40:57 25° 266° (W) 20:44:29 437.345
UWE-3 21 Nov 20:50:02 20:51:39 12° 272° (W) 20:53:16 435.000/436.395/437.385
EO-88 21 Nov 20:57:35 21:00:57 37° 70° (ENE) 21:04:19 145.990 - 145.960
Max Valier Satellite 21 Nov 20:59:40 21:03:15 56° 73° (ENE) 21:06:51 145.860
FO-29 21 Nov 21:04:43 21:12:39 76° 103° (ESE) 21:20:10 435.910
STRAND 1 21 Nov 21:04:59 21:09:31 32° 296° (WNW) 21:14:00 437.568
ISS 21 Nov 21:08:24 21:11:12 26° 142° (SE) 21:14:00 437.550
LO-87 21 Nov 21:23:22 21:24:39 12° 61° (ENE) 21:25:57 145.935 - 145.965
ESTCUBE 1 21 Nov 21:24:29 21:26:33 13° 57° (ENE) 21:28:37 437.505/2401.250
NO-84 21 Nov 21:28:42 21:32:58 82° 33° (NNE) 21:37:15 435.350 FM
DELFI C3 21 Nov 21:31:45 21:35:33 43° 262° (W) 21:39:23 145.870
nSIGHT-1 21 Nov 21:59:03 22:02:16 75° 152° (SSE) 22:05:28 .
RS-15 21 Nov 22:01:11 22:12:46 43° 335° (NNW) 22:24:05 29.354- 29.394
SO-50 21 Nov 22:04:23 22:08:43 52° 122° (ESE) 22:13:07 436.795
UNISAT 6 21 Nov 22:17:34 22:21:53 75° 103° (ESE) 22:26:08 437.425
O/OREOS (USA 219) 21 Nov 22:18:35 22:22:41 31° 54° (NE) 22:26:44 437.305
TIGRISAT 21 Nov 22:21:50 22:26:08 75° 103° (ESE) 22:30:22 435.000
EO-88 21 Nov 22:32:17 22:34:44 17° 268° (W) 22:37:12 145.990 - 145.960
Max Valier Satellite 21 Nov 22:35:59 22:37:25 12° 271° (W) 22:38:52 145.860
SPROUT 21 Nov 22:37:15 22:39:59 17° 61° (ENE) 22:42:44 437.525
ISS 21 Nov 22:44:13 22:47:28 68° 339° (NNW) 22:50:45 437.550
FO-29 21 Nov 22:50:24 22:56:58 30° 303° (WNW) 23:03:19 435.910
LO-87 21 Nov 22:53:57 22:57:33 66° 258° (WSW) 23:01:10 145.935 - 145.965
ESTCUBE 1 21 Nov 22:58:12 23:02:41 88° 257° (WSW) 23:07:12 437.505/2401.250
PCSat 21 Nov 23:04:40 23:06:19 11° 101° (ESE) 23:07:58 145.827
NO-84 21 Nov 23:06:41 23:09:57 22° 230° (SW) 23:13:12 435.350 FM
PRISM 21 Nov 23:10:16 23:14:28 87° 289° (WNW) 23:18:37 437.425
VELOX 1 21 Nov 23:17:40 23:21:27 28° 65° (ENE) 23:25:15 145.980
AIST 2D 21 Nov 23:21:40 23:25:02 42° 98° (E) 23:28:24 435.315
DUCHIFAT 1 21 Nov 23:29:49 23:32:14 15° 90° (E) 23:34:37 145.980
nSIGHT-1 21 Nov 23:35:35 23:38:40 41° 352° (N) 23:41:44 .
EO-79 21 Nov 23:36:57 23:40:17 22° 93° (E) 23:43:36 145.935-145.965
NANOSAT C BR1 21 Nov 23:39:58 23:43:14 22° 93° (E) 23:46:27 145.865
SO-50 21 Nov 23:45:31 23:49:25 28° 322° (NW) 23:53:22 436.795
POLYITAN 1 21 Nov 23:52:05 23:55:51 31° 96° (E) 23:59:36 437.675
UNISAT 6 21 Nov 23:55:49 23:58:02 14° 301° (WNW) 00:00:12 437.425
O/OREOS (USA 219) 21 Nov 23:57:59 00:02:07 34° 254° (WSW) 00:06:11 437.305
TIGRISAT 22 Nov 00:00:06 00:02:15 14° 301° (WNW) 00:04:22 435.000
DX 1 22 Nov 00:02:24 00:05:40 21° 62° (ENE) 00:08:57 434.975-435.025
SPROUT 22 Nov 00:11:12 00:15:26 60° 259° (W) 00:19:42 437.525
QB50P2 22 Nov 00:15:11 00:19:22 62° 101° (ESE) 00:23:31 145.880/145.840
RS-15 22 Nov 00:18:16 00:29:12 35° 8° (N) 00:39:43 29.354- 29.394
BUGSAT 1 22 Nov 00:21:08 00:22:59 13° 89° (E) 00:24:48 437.445
ISS 22 Nov 00:21:09 00:24:16 39° 0° (N) 00:27:23 437.550
50 SAT 22 Nov 00:34:18 00:37:18 36° 71° (ENE) 00:40:19 437.505
Oscar 19 22 Nov 00:37:05 00:39:31 13° 87° (E) 00:41:56 437.125/150
ESTCUBE 1 22 Nov 00:39:26 00:40:10 10° 274° (W) 00:40:54 437.505/2401.250
UKube-1 22 Nov 00:42:49 00:46:39 32° 66° (ENE) 00:50:30 .
PCSat 22 Nov 00:43:20 00:48:43 72° 120° (ESE) 00:54:09 145.827
PRISM 22 Nov 00:47:46 00:49:02 11° 303° (WNW) 00:50:18 437.425
VELOX 1 22 Nov 00:53:42 00:57:46 35° 263° (W) 01:01:53 145.980
AIST 2D 22 Nov 00:55:44 00:57:54 16° 296° (WNW) 01:00:04 435.315
DUCHIFAT 1 22 Nov 01:04:09 01:08:16 58° 288° (WNW) 01:12:20 145.980
Gurwin Techsat 1B 22 Nov 01:05:10 01:08:45 18° 89° (E) 01:12:18 435.225
nSIGHT-1 22 Nov 01:12:09 01:15:17 47° 13° (NNE) 01:18:24 .
EO-79 22 Nov 01:12:16 01:16:10 38° 291° (WNW) 01:20:02 145.935-145.965
NANOSAT C BR1 22 Nov 01:15:10 01:19:05 39° 291° (WNW) 01:22:58 145.865
POLYITAN 1 22 Nov 01:27:59 01:31:33 27° 294° (WNW) 01:35:05 437.675
SO-50 22 Nov 01:30:06 01:31:23 11° 346° (NNW) 01:32:41 436.795
DX 1 22 Nov 01:37:18 01:41:32 48° 260° (W) 01:45:49 434.975-435.025
BEESAT 22 Nov 01:49:00 01:52:56 26° 63° (ENE) 01:56:52 436.000
QB50P2 22 Nov 01:52:09 01:54:42 16° 299° (WNW) 01:57:14 145.880/145.840
BUGSAT 1 22 Nov 01:54:45 01:58:46 64° 288° (WNW) 02:02:44 437.445
ISS 22 Nov 01:57:47 02:01:04 68° 20° (NNE) 02:04:19 437.550
ITUPSAT 1 22 Nov 01:58:45 02:02:56 31° 65° (ENE) 02:07:07 437.325
MOZHAYETS 4 22 Nov 02:06:04 02:10:21 42° 69° (ENE) 02:14:40
50 SAT 22 Nov 02:07:43 02:09:33 14° 268° (W) 02:11:24 437.505
Oscar 19 22 Nov 02:14:21 02:19:33 90° 290° (WNW) 02:24:44 437.125/150
UKube-1 22 Nov 02:18:53 02:22:39 29° 264° (W) 02:26:27 .
CUBESAT XI-V 22 Nov 02:20:39 02:23:34 17° 60° (ENE) 02:26:30 437.345
PCSat 22 Nov 02:28:06 02:32:38 26° 321° (NW) 02:37:12 145.827
BEESAT 3 22 Nov 02:32:25 02:35:55 30° 117° (ESE) 02:39:26 437.485
RS-15 22 Nov 02:32:45 02:44:41 61° 40° (NE) 02:55:57 29.354- 29.394
Gurwin Techsat 1B 22 Nov 02:43:55 02:49:14 72° 288° (WNW) 02:54:31 435.225
nSIGHT-1 22 Nov 02:48:27 02:51:33 48° 212° (SSW) 02:54:38 .
M-CUBED/EXP-1 PRIME 22 Nov 03:03:07 03:07:28 44° 104° (ESE) 03:11:55 437.505
SO-50 22 Nov 03:13:08 03:13:59 10° 12° (NNE) 03:14:50 436.795
AO-7 22 Nov 03:20:22 03:28:09 41° 98° (E) 03:35:53 .
AO-85 22 Nov 03:24:11 03:25:36 12° 109° (ESE) 03:27:01 145.980
BEESAT 22 Nov 03:25:57 03:30:30 43° 261° (W) 03:35:04 436.000
ISS 22 Nov 03:34:33 03:37:21 26° 218° (SW) 03:40:07 437.550
ITUPSAT 1 22 Nov 03:36:17 03:40:41 36° 263° (W) 03:45:06 437.325
MOZHAYETS 4 22 Nov 03:44:00 03:47:41 24° 267° (W) 03:51:22
BEESAT 2 22 Nov 03:44:48 03:48:40 48° 121° (ESE) 03:52:36 435.950
KKS-1 22 Nov 03:53:56 03:57:56 33° 66° (ENE) 04:01:56 437.445
YUBILEINY 22 Nov 03:54:59 03:59:49 16° 72° (ENE) 04:04:40 435.215
Oscar 19 22 Nov 03:55:11 03:58:09 16° 304° (NW) 04:01:08 437.125/150
CUBESAT XI-V 22 Nov 03:55:51 04:00:25 69° 258° (WSW) 04:05:03 437.345
ITAMSAT 1 22 Nov 04:08:03 04:13:15 64° 102° (ESE) 04:18:24 435.822/435.867
BEESAT 3 22 Nov 04:09:40 04:13:23 36° 316° (NW) 04:17:07 437.485
PCSat 22 Nov 04:16:43 04:18:01 11° 346° (NNW) 04:19:21 145.827
STARS 22 Nov 04:16:52 04:20:25 24° 63° (ENE) 04:24:00 437.465
Gurwin Techsat 1B 22 Nov 04:25:53 04:28:16 13° 307° (NW) 04:30:38 435.225
DOVE 4 22 Nov 04:31:19 04:35:30 24° 91° (E) 04:39:31 437.250
